QPF
0.04 0.06 0.05 0.05 0.05 0.05 0.05 0.05 0.05 0.05 0.06 0.05 0.05 0.07 0.06 0.04 0.03 0.03 0.03 0.04 0.04 0.04 0.03 0.04 0.04 0.05 0.06 0.06 0.06 0.06 0.07 0.07 0.06 0.04 0.04 0.03 0.04 0.04 0.04 0.04 0.04 0.04 0.03
0.03 0.04 0.05 0.05 0.05 0.05 0.05 0.05 0.05 0.05 0.06 0.06 0.07 0.06 0.06 0.06 0.05 0.04 0.03 0.04 0.04 0.05 0.06 0.07 0.06 0.07 0.08 0.08 0.08 0.08 0.08 0.08 0.08 0.06 0.06 0.05 0.05 0.04 0.04 0.04 0.03 0.03 0.03
0.02 0.03 0.04 0.04 0.04 0.04 0.04 0.04 0.04 0.05 0.05 0.05 0.06 0.07 0.06 0.06 0.06 0.05 0.04 0.03 0.03 0.05 0.06 0.08 0.09 0.08 0.09 0.10 0.09 0.09 0.07 0.06 0.08 0.07 0.06 0.07 0.05 0.04 0.06 0.05 0.03 0.04 0.03
0.02 0.03 0.05 0.05 0.05 0.05 0.05 0.05 0.05 0.05 0.06 0.06 0.07 0.07 0.08 0.08 0.06 0.05 0.05 0.04 0.04 0.05 0.05 0.06 0.07 0.08 0.08 0.08 0.07 0.08 0.09 0.08 0.09 0.07 0.07 0.06 0.06 0.05 0.07 0.06 0.05 0.05 0.04
0.03 0.04 0.06 0.07 0.06 0.05 0.05 0.04 0.05 0.05 0.06 0.07 0.07 0.08 0.09 0.07 0.05 0.04 0.04 0.04 0.04 0.05 0.05 0.05 0.07 0.07 0.07 0.07 0.06 0.07 0.09 0.08 0.07 0.06 0.07 0.08 0.06 0.06 0.05 0.05 0.06 0.06 0.05
0.02 0.03 0.06 0.05 0.05 0.05 0.03 0.03 0.04 0.04 0.05 0.06 0.06 0.07 0.06 0.05 0.03 0.03 0.03 0.04 0.05 0.06 0.06 0.06 0.07 0.07 0.06 0.05 0.05 0.05 0.06 0.06 0.05 0.06 0.08 0.07 0.06 0.05 0.06 0.05 0.05 0.06 0.04
0.03 0.04 0.04 0.05 0.05 0.05 0.03 0.03 0.04 0.05 0.07 0.06 0.07 0.06 0.06 0.04 0.02 0.02 0.02 0.03 0.03 0.05 0.06 0.07 0.07 0.05 0.04 0.03 0.03 0.03 0.03 0.03 0.02 0.04 0.05 0.05 0.06 0.06 0.07 0.06 0.07 0.06 0.06
0.05 0.04 0.03 0.04 0.04 0.04 0.03 0.02 0.04 0.05 0.05 0.05 0.06 0.07 0.06 0.04 0.02 0.02 0.02 0.02 0.02 0.03 0.03 0.03 0.04 0.04 0.04 0.04 0.04 0.03 0.03 0.03 0.02 0.02 0.03 0.03 0.04 0.06 0.06 0.05 0.07 0.06 0.05
0.07 0.04 0.03 0.04 0.04 0.03 0.03 0.03 0.03 0.04 0.04 0.04 0.05 0.06 0.05 0.04 0.03 0.03 0.02 0.02 0.03 0.04 0.04 0.03 0.03 0.03 0.02 0.03 0.03 0.03 0.04 0.03 0.02 0.02 0.02 0.02 0.03 0.03 0.04 0.04 0.05 0.05 0.04
0.08 0.04 0.03 0.04 0.04 0.04 0.05 0.05 0.04 0.05 0.05 0.05 0.05 0.04 0.04 0.04 0.04 0.04 0.03 0.03 0.03 0.04 0.05 0.04 0.03 0.03 0.02 0.02 0.02 0.02 0.02 0.03 0.04 0.04 0.03 0.02 0.01 0.02 0.02 0.03 0.04 0.04 0.05
0.03 0.02 0.03 0.03 0.04 0.05 0.05 0.05 0.05 0.06 0.06 0.05 0.05 0.04 0.04 0.03 0.03 0.04 0.04 0.04 0.03 0.03 0.03 0.02 0.02 0.02 0.02 0.02 0.02 0.03 0.02 0.04 0.05 0.05 0.05 0.04 0.03 0.03 0.02 0.03 0.03 0.04 0.05
0.03 0.03 0.04 0.04 0.05 0.06 0.07 0.06 0.04 0.04 0.04 0.04 0.03 0.03 0.03 0.03 0.02 0.03 0.04 0.04 0.03 0.03 0.02 0.02 0.02 0.02 0.02 0.02 0.01 0.02 0.03 0.04 0.04 0.03 0.03 0.03 0.04 0.04 0.04 0.04 0.05 0.06 0.05
0.03 0.03 0.04 0.04 0.05 0.06 0.07 0.06 0.05 0.04 0.04 0.04 0.03 0.04 0.05 0.04 0.04 0.03 0.03 0.03 0.03 0.02 0.02 0.02 0.02 0.02 0.02 0.02 0.02 0.02 0.03 0.03 0.03 0.03 0.03 0.04 0.05 0.05 0.04 0.05 0.05 0.06 0.05
0.02 0.03 0.03 0.03 0.03 0.03 0.04 0.04 0.05 0.05 0.04 0.04 0.04 0.06 0.06 0.06 0.05 0.04 0.04 0.04 0.03 0.03 0.03 0.03 0.03 0.03 0.03 0.02 0.01 0.01 0.01 0.02 0.02 0.03 0.04 0.05 0.04 0.04 0.03 0.03 0.04 0.05 0.06
0.02 0.02 0.03 0.04 0.03 0.03 0.03 0.03 0.03 0.03 0.02 0.03 0.03 0.04 0.04 0.04 0.04 0.04 0.05 0.04 0.04 0.04 0.04 0.03 0.03 0.04 0.04 0.04 0.03 0.02 0.02 0.02 0.02 0.02 0.03 0.05 0.05 0.04 0.04 0.03 0.04 0.05 0.05
0.02 0.02 0.03 0.03 0.03 0.03 0.03 0.04 0.03 0.03 0.01 0.02 0.03 0.03 0.03 0.02 0.02 0.02 0.02 0.03 0.03 0.03 0.02 0.03 0.04 0.04 0.05 0.06 0.05 0.04 0.04 0.04 0.04 0.03 0.04 0.05 0.06 0.06 0.06 0.06 0.07 0.07 0.06
0.01 0.02 0.02 0.03 0.04 0.04 0.05 0.05 0.04 0.03 0.03 0.03 0.03 0.03 0.03 0.02 0.02 0.02 0.02 0.02 0.02 0.03 0.02 0.02 0.02 0.02 0.03 0.05 0.05 0.05 0.04 0.04 0.05 0.05 0.04 0.04 0.05 0.05 0.06 0.06 0.06 0.06 0.05
0.02 0.03 0.03 0.03 0.02 0.02 0.03 0.04 0.04 0.04 0.04 0.03 0.03 0.04 0.04 0.04 0.03 0.04 0.04 0.03 0.03 0.03 0.03 0.03 0.03 0.03 0.03 0.04 0.05 0.06 0.05 0.05 0.06 0.06 0.05 0.04 0.05 0.05 0.05 0.05 0.05 0.06 0.06
0.02 0.03 0.02 0.02 0.02 0.01 0.01 0.02 0.02 0.03 0.03 0.02 0.02 0.03 0.04 0.04 0.04 0.04 0.04 0.04 0.03 0.03 0.03 0.04 0.04 0.04 0.04 0.04 0.04 0.06 0.07 0.06 0.07 0.09 0.08 0.07 0.09 0.09 0.08 0.07 0.07 0.07 0.07
0.03 0.03 0.02 0.02 0.02 0.01 0.01 0.01 0.01 0.01 0.01 0.01 0.02 0.02 0.03 0.03 0.04 0.05 0.05 0.05 0.05 0.05 0.05 0.05 0.05 0.05 0.06 0.07 0.07 0.08 0.09 0.10 0.11 0.11 0.08 0.08 0.09 0.09 0.08 0.07 0.07 0.07 0.07
0.02 0.03 0.02 0.02 0.02 0.01 0.02 0.03 0.02 0.01 0.01 0.01 0.02 0.02 0.03 0.03 0.04 0.05 0.06 0.06 0.05 0.05 0.06 0.06 0.05 0.05 0.06 0.07 0.09 0.09 0.08 0.08 0.07 0.07 0.07 0.08 0.09 0.09 0.08 0.07 0.06 0.06 0.06
0.03 0.03 0.02 0.02 0.02 0.02 0.02 0.02 0.02 0.03 0.03 0.03 0.04 0.03 0.03 0.04 0.04 0.04 0.04 0.04 0.04 0.04 0.05 0.06 0.05 0.04 0.04 0.04 0.05 0.06 0.06 0.06 0.06 0.06 0.06 0.06 0.07 0.08 0.07 0.07 0.07 0.06 0.06
0.03 0.02 0.02 0.02 0.01 0.01 0.01 0.02 0.02 0.03 0.04 0.06 0.06 0.04 0.04 0.03 0.03 0.03 0.04 0.04 0.03 0.03 0.04 0.04 0.05 0.05 0.04 0.04 0.04 0.05 0.06 0.07 0.06 0.06 0.07 0.06 0.05 0.07 0.08 0.08 0.07 0.07 0.06
0.02 0.02 0.02 0.02 0.01 0.01 0.01 0.01 0.01 0.02 0.02 0.03 0.04 0.04 0.04 0.03 0.03 0.03 0.03 0.02 0.02 0.02 0.02 0.03 0.03 0.04 0.05 0.04 0.03 0.03 0.04 0.05 0.06 0.07 0.08 0.09 0.08 0.07 0.07 0.07 0.08 0.08 0.07
0.02 0.02 0.05 0.07 0.06 0.06 0.04 0.03 0.02 0.02 0.03 0.03 0.02 0.02 0.02 0.02 0.01 0.01 0.01 0.02 0.02 0.02 0.02 0.03 0.03 0.03 0.03 0.03 0.03 0.03 0.04 0.04 0.04 0.05 0.05 0.07 0.09 0.08 0.08 0.08 0.09 0.09 0.09
0.02 0.03 0.05 0.09 0.07 0.06 0.03 0.03 0.03 0.02 0.02 0.02 0.02 0.01 0.01 0.01 0.01 0.01 0.01 0.01 0.01 0.02 0.02 0.02 0.01 0.01 0.02 0.02 0.02 0.03 0.03 0.03 0.03 0.03 0.03 0.04 0.04 0.05 0.06 0.07 0.08 0.10 0.11
MSLP
1006.94 1007.35 1007.75 1008.06 1008.24 1008.27 1008.16 1007.94 1007.64 1007.33 1007.05 1006.81 1006.65 1006.53 1006.47 1006.42 1006.38 1006.32 1006.26 1006.19 1006.13 1006.08 1006.04 1006.02 1006.01 1006.01 1005.99 1005.97 1005.94 1005.92 1005.91 1005.94 1006.03 1006.18 1006.39 1006.66 1006.98 1007.31 1007.63 1007.93 1008.20 1008.41 1008.59
1006.76 1007.21 1007.67 1008.05 1008.31 1008.43 1008.40 1008.24 1008.01 1007.73 1007.46 1007.23 1007.06 1006.94 1006.87 1006.83 1006.81 1006.79 1006.76 1006.73 1006.70 1006.67 1006.63 1006.60 1006.56 1006.51 1006.46 1006.39 1006.33 1006.27 1006.24 1006.25 1006.32 1006.45 1006.63 1006.87 1007.13 1007.41 1007.69 1007.93 1008.15 1008.33 1008.47
1006.59 1007.09 1007.59 1008.03 1008.36 1008.55 1008.60 1008.53 1008.37 1008.15 1007.93 1007.73 1007.58 1007.47 1007.41 1007.38 1007.37 1007.36 1007.35 1007.33 1007.31 1007.27 1007.23 1007.18 1007.12 1007.05 1006.96 1006.87 1006.78 1006.70 1006.65 1006.64 1006.67 1006.75 1006.89 1007.06 1007.25 1007.46 1007.66 1007.84 1008.00 1008.13 1008.25
1006.47 1007.01 1007.54 1008.01 1008.39 1008.64 1008.76 1008.76 1008.68 1008.54 1008.39 1008.24 1008.12 1008.04 1007.99 1007.97 1007.96 1007.95 1007.93 1007.91 1007.87 1007.82 1007.77 1007.70 1007.62 1007.53 1007.44 1007.33 1007.23 1007.14 1007.08 1007.04 1007.03 1007.06 1007.13 1007.23 1007.34 1007.46 1007.58 1007.69 1007.79 1007.89 1007.98
1006.43 1006.98 1007.52 1008.01 1008.40 1008.68 1008.85 1008.91 1008.89 1008.83 1008.74 1008.65 1008.58 1008.52 1008.49 1008.46 1008.44 1008.41 1008.38 1008.33 1008.27 1008.21 1008.14 1008.06 1007.98 1007.89 1007.80 1007.71 1007.62 1007.53 1007.45 1007.40 1007.36 1007.34 1007.35 1007.37 1007.40 1007.44 1007.49 1007.53 1007.58 1007.65 1007.73
1006.46 1007.01 1007.53 1008.00 1008.39 1008.67 1008.85 1008.94 1008.97 1008.95 1008.92 1008.87 1008.83 1008.80 1008.77 1008.74 1008.71 1008.66 1008.59 1008.52 1008.44 1008.36 1008.28 1008.21 1008.13 1008.07 1008.01 1007.94 1007.87 1007.80 1007.74 1007.67 1007.62 1007.57 1007.52 1007.49 1007.45 1007.43 1007.41 1007.41 1007.42 1007.45 1007.51
1006.58 1007.09 1007.57 1008.00 1008.33 1008.58 1008.75 1008.84 1008.88 1008.89 1008.88 1008.87 1008.85 1008.83 1008.80 1008.76 1008.70 1008.63 1008.54 1008.44 1008.35 1008.26 1008.19 1008.13 1008.08 1008.05 1008.02 1008.00 1007.97 1007.93 1007.88 1007.83 1007.77 1007.69 1007.62 1007.55 1007.48 1007.41 1007.35 1007.31 1007.29 1007.30 1007.34
1006.77 1007.22 1007.64 1007.98 1008.25 1008.44 1008.56 1008.62 1008.65 1008.66 1008.65 1008.65 1008.64 1008.61 1008.58 1008.53 1008.45 1008.36 1008.25 1008.15 1008.05 1007.96 1007.90 1007.87 1007.85 1007.86 1007.87 1007.88 1007.89 1007.88 1007.86 1007.82 1007.76 1007.69 1007.60 1007.51 1007.41 1007.33 1007.25 1007.18 1007.14 1007.13 1007.15
1007.01 1007.38 1007.70 1007.96 1008.14 1008.25 1008.31 1008.33 1008.33 1008.32 1008.31 1008.29 1008.28 1008.25 1008.21 1008.15 1008.06 1007.96 1007.85 1007.74 1007.65 1007.58 1007.53 1007.51 1007.52 1007.55 1007.59 1007.63 1007.65 1007.66 1007.65 1007.61 1007.56 1007.48 1007.39 1007.29 1007.19 1007.10 1007.01 1006.94 1006.89 1006.85 1006.85
1007.27 1007.55 1007.77 1007.93 1008.02 1008.05 1008.05 1008.02 1007.98 1007.95 1007.92 1007.90 1007.88 1007.85 1007.81 1007.75 1007.67 1007.57 1007.47 1007.37 1007.28 1007.21 1007.17 1007.16 1007.17 1007.20 1007.23 1007.26 1007.27 1007.27 1007.24 1007.19 1007.12 1007.04 1006.94 1006.84 1006.74 1006.65 1006.56 1006.48 1006.42 1006.38 1006.35
1007.53 1007.71 1007.84 1007.90 1007.90 1007.86 1007.80 1007.73 1007.66 1007.61 1007.57 1007.55 1007.54 1007.52 1007.48 1007.43 1007.37 1007.28 1007.19 1007.10 1007.02 1006.95 1006.90 1006.87 1006.85 1006.83 1006.82 1006.80 1006.76 1006.70 1006.63 1006.54 1006.44 1006.33 1006.21 1006.11 1006.01 1005.91 1005.83 1005.76 1005.70 1005.65 1005.61
1007.76 1007.85 1007.89 1007.86 1007.79 1007.70 1007.59 1007.49 1007.40 1007.34 1007.31 1007.29 1007.29 1007.28 1007.27 1007.24 1007.20 1007.13 1007.06 1006.97 1006.88 1006.80 1006.71 1006.63 1006.55 1006.46 1006.36 1006.25 1006.12 1005.98 1005.83 1005.67 1005.52 1005.37 1005.23 1005.11 1005.01 1004.92 1004.84 1004.77 1004.71 1004.66 1004.62
1007.94 1007.94 1007.90 1007.81 1007.69 1007.54 1007.40 1007.28 1007.19 1007.13 1007.10 1007.10 1007.12 1007.14 1007.15 1007.15 1007.13 1007.08 1007.01 1006.93 1006.82 1006.70 1006.56 1006.41 1006.24 1006.05 1005.84 1005.61 1005.37 1005.13 1004.88 1004.65 1004.43 1004.24 1004.07 1003.94 1003.83 1003.74 1003.67 1003.61 1003.56 1003.51 1003.47
1008.04 1007.98 1007.87 1007.73 1007.56 1007.38 1007.22 1007.09 1006.99 1006.93 1006.92 1006.93 1006.97 1007.01 1007.05 1007.07 1007.06 1007.03 1006.97 1006.87 1006.74 1006.57 1006.37 1006.13 1005.86 1005.57 1005.24 1004.90 1004.55 1004.20 1003.87 1003.56 1003.29 1003.06 1002.87 1002.72 1002.61 1002.53 1002.47 1002.42 1002.38 1002.34 1002.30
1008.07 1007.95 1007.79 1007.60 1007.40 1007.20 1007.02 1006.87 1006.77 1006.71 1006.70 1006.72 1006.76 1006.81 1006.86 1006.90 1006.90 1006.88 1006.81 1006.69 1006.53 1006.32 1006.05 1005.74 1005.39 1005.00 1004.58 1004.14 1003.71 1003.29 1002.90 1002.54 1002.24 1001.99 1001.80 1001.65 1001.54 1001.47 1001.42 1001.38 1001.35 1001.32 1001.28
1008.03 1007.87 1007.67 1007.44 1007.21 1006.98 1006.78 1006.61 1006.49 1006.42 1006.40 1006.41 1006.44 1006.49 1006.54 1006.57 1006.57 1006.53 1006.45 1006.32 1006.13 1005.88 1005.58 1005.22 1004.81 1004.37 1003.90 1003.42 1002.95 1002.50 1002.09 1001.73 1001.43 1001.19 1001.01 1000.89 1000.80 1000.74 1000.71 1000.68 1000.65 1000.62 1000.58
1007.94 1007.75 1007.52 1007.26 1006.99 1006.74 1006.51 1006.32 1006.17 1006.07 1006.02 1006.00 1006.01 1006.04 1006.06 1006.07 1006.06 1006.01 1005.92 1005.77 1005.56 1005.30 1004.98 1004.61 1004.19 1003.74 1003.27 1002.81 1002.35 1001.93 1001.56 1001.23 1000.97 1000.77 1000.63 1000.53 1000.47 1000.44 1000.42 1000.40 1000.37 1000.33 1000.28
1007.83 1007.61 1007.35 1007.07 1006.78 1006.49 1006.24 1006.01 1005.83 1005.70 1005.60 1005.55 1005.52 1005.51 1005.50 1005.48 1005.45 1005.38 1005.27 1005.11 1004.91 1004.65 1004.35 1004.00 1003.62 1003.22 1002.80 1002.40 1002.01 1001.66 1001.35 1001.10 1000.90 1000.76 1000.67 1000.61 1000.58 1000.57 1000.55 1000.53 1000.50 1000.44 1000.36
1007.72 1007.48 1007.20 1006.90 1006.58 1006.28 1005.99 1005.74 1005.52 1005.35 1005.21 1005.12 1005.05 1005.00 1004.95 1004.90 1004.84 1004.75 1004.64 1004.49 1004.30 1004.07 1003.81 1003.52 1003.21 1002.88 1002.55 1002.24 1001.95 1001.70 1001.49 1001.32 1001.20 1001.12 1001.07 1001.05 1001.04 1001.04 1001.02 1001.00 1000.94 1000.86 1000.75
1007.62 1007.37 1007.07 1006.76 1006.43 1006.10 1005.80 1005.52 1005.28 1005.08 1004.91 1004.78 1004.68 1004.59 1004.52 1004.44 1004.36 1004.27 1004.15 1004.02 1003.86 1003.67 1003.47 1003.25 1003.02 1002.79 1002.57 1002.36 1002.18 1002.02 1001.90 1001.81 1001.75 1001.72 1001.70 1001.70 1001.70 1001.69 1001.66 1001.62 1001.54 1001.43 1001.28
1007.52 1007.26 1006.96 1006.64 1006.30 1005.98 1005.67 1005.38 1005.13 1004.92 1004.74 1004.59 1004.47 1004.37 1004.27 1004.19 1004.10 1004.00 1003.90 1003.79 1003.67 1003.53 1003.39 1003.25 1003.10 1002.96 1002.83 1002.72 1002.62 1002.54 1002.48 1002.44 1002.42 1002.41 1002.40 1002.38 1002.37 1002.33 1002.28 1002.21 1002.10 1001.96 1001.77
1007.41 1007.14 1006.84 1006.52 1006.19 1005.87 1005.57 1005.30 1005.06 1004.86 1004.69 1004.54 1004.43 1004.33 1004.24 1004.16 1004.08 1004.00 1003.91 1003.83 1003.74 1003.65 1003.57 1003.48 1003.41 1003.34 1003.28 1003.22 1003.18 1003.14 1003.11 1003.08 1003.06 1003.02 1002.99 1002.94 1002.88 1002.80 1002.71 1002.59 1002.45 1002.28 1002.06
1007.27 1006.99 1006.68 1006.37 1006.05 1005.75 1005.48 1005.24 1005.03 1004.86 1004.72 1004.61 1004.52 1004.45 1004.38 1004.32 1004.26 1004.21 1004.15 1004.09 1004.03 1003.98 1003.93 1003.89 1003.85 1003.82 1003.79 1003.77 1003.74 1003.70 1003.66 1003.60 1003.53 1003.45 1003.35 1003.24 1003.11 1002.98 1002.83 1002.66 1002.48 1002.27 1002.03
1007.06 1006.77 1006.47 1006.16 1005.87 1005.60 1005.36 1005.16 1005.00 1004.88 1004.79 1004.73 1004.68 1004.65 1004.62 1004.60 1004.57 1004.54 1004.50 1004.47 1004.43 1004.40 1004.37 1004.35 1004.33 1004.31 1004.28 1004.24 1004.19 1004.13 1004.04 1003.92 1003.79 1003.63 1003.45 1003.25 1003.05 1002.83 1002.61 1002.39 1002.16 1001.92 1001.65
1006.77 1006.48 1006.17 1005.88 1005.61 1005.37 1005.18 1005.04 1004.93 1004.87 1004.84 1004.84 1004.85 1004.87 1004.89 1004.90 1004.90 1004.89 1004.88 1004.86 1004.84 1004.81 1004.79 1004.76 1004.73 1004.69 1004.65 1004.58 1004.49 1004.37 1004.22 1004.03 1003.81 1003.56 1003.29 1003.01 1002.71 1002.41 1002.12 1001.83 1001.55 1001.26 1000.96
1006.42 1006.11 1005.81 1005.54 1005.30 1005.11 1004.97 1004.88 1004.84 1004.84 1004.87 1004.93 1005.00 1005.06 1005.12 1005.16 1005.19 1005.20 1005.19 1005.18 1005.15 1005.12 1005.09 1005.05 1005.00 1004.94 1004.86 1004.75 1004.61 1004.44 1004.22 1003.96 1003.66 1003.32 1002.96 1002.58 1002.20 1001.82 1001.44 1001.08 1000.74 1000.40 1000.05
Thickness
5806 5802 5799 5795 5793 5790 5786 5783 5781 5778 5776 5774 5772 5770 5768 5766 5765 5763 5762 5761 5760 5758 5758 5757 5755 5754 5752 5751 5750 5749 5746 5743 5736 5739 5743 5745 5744 5742 5740 5739 5737 5735 5733
5805 5801 5797 5794 5791 5787 5784 5781 5779 5776 5773 5771 5769 5766 5764 5763 5762 5760 5757 5757 5755 5754 5753 5752 5750 5750 5747 5746 5744 5743 5741 5741 5736 5731 5734 5736 5737 5738 5736 5735 5735 5734 5732
5805 5800 5795 5791 5788 5784 5782 5780 5777 5773 5770 5768 5765 5762 5760 5759 5757 5756 5755 5753 5752 5751 5749 5747 5746 5744 5741 5740 5739 5737 5737 5737 5734 5730 5730 5732 5733 5733 5731 5730 5731 5730 5730
5802 5797 5792 5788 5785 5782 5779 5777 5774 5770 5767 5764 5761 5759 5757 5755 5753 5751 5750 5749 5747 5746 5746 5744 5742 5740 5737 5735 5734 5732 5731 5729 5728 5726 5725 5725 5726 5727 5724 5722 5721 5723 5724
5797 5792 5788 5785 5782 5779 5776 5773 5771 5767 5764 5761 5757 5755 5753 5751 5749 5746 5745 5745 5742 5740 5740 5739 5738 5736 5733 5731 5730 5727 5725 5722 5721 5719 5717 5717 5717 5717 5715 5716 5714 5716 5718
5791 5787 5784 5781 5777 5774 5771 5769 5766 5762 5760 5756 5753 5750 5748 5747 5744 5741 5739 5738 5736 5734 5733 5733 5732 5730 5728 5726 5725 5723 5720 5716 5714 5712 5711 5709 5709 5711 5711 5709 5707 5706 5706
5785 5782 5779 5776 5772 5769 5767 5764 5760 5757 5754 5751 5748 5745 5742 5739 5737 5735 5733 5732 5731 5729 5727 5726 5726 5726 5723 5721 5719 5717 5715 5713 5710 5708 5705 5705 5705 5705 5703 5701 5700 5699 5699
5779 5776 5774 5771 5767 5765 5761 5758 5755 5752 5748 5744 5742 5740 5737 5734 5731 5729 5727 5726 5725 5724 5722 5721 5718 5717 5716 5713 5712 5710 5709 5709 5707 5704 5703 5703 5702 5701 5699 5697 5696 5695 5697
5772 5770 5767 5765 5761 5757 5754 5751 5748 5745 5742 5739 5736 5734 5731 5727 5725 5723 5719 5719 5718 5717 5716 5715 5713 5710 5707 5705 5703 5701 5701 5701 5702 5701 5699 5698 5696 5695 5693 5690 5688 5685 5685
5766 5764 5761 5758 5754 5750 5747 5745 5742 5738 5735 5733 5730 5728 5725 5722 5719 5716 5713 5713 5711 5710 5709 5708 5706 5703 5700 5697 5695 5693 5691 5692 5693 5694 5693 5691 5690 5689 5687 5684 5681 5677 5677
5759 5756 5753 5750 5747 5743 5740 5737 5733 5730 5728 5725 5723 5721 5719 5716 5712 5709 5706 5705 5703 5702 5701 5700 5699 5696 5693 5690 5688 5687 5686 5685 5685 5686 5686 5685 5685 5684 5683 5680 5678 5675 5671
5751 5748 5744 5742 5739 5736 5731 5728 5726 5723 5719 5717 5716 5714 5712 5710 5706 5702 5699 5697 5696 5694 5693 5693 5691 5688 5686 5684 5682 5682 5680 5678 5678 5678 5677 5677 5677 5676 5676 5676 5674 5672 5670
5741 5738 5735 5733 5730 5727 5723 5720 5718 5716 5713 5710 5708 5705 5703 5702 5698 5695 5692 5690 5688 5686 5686 5684 5682 5680 5679 5678 5677 5675 5673 5671 5670 5668 5668 5669 5670 5670 5670 5668 5667 5666 5665
5731 5728 5727 5724 5721 5719 5716 5713 5710 5707 5704 5701 5699 5696 5694 5691 5689 5686 5684 5681 5679 5678 5677 5676 5675 5673 5672 5671 5671 5669 5667 5666 5664 5662 5662 5662 5663 5662 5660 5659 5657 5656 5654
5721 5719 5717 5716 5713 5710 5707 5703 5701 5698 5695 5692 5691 5689 5684 5681 5678 5676 5674 5673 5671 5670 5668 5668 5667 5666 5665 5665 5664 5663 5661 5659 5656 5655 5654 5652 5652 5651 5650 5650 5648 5646 5644
5711 5709 5708 5706 5704 5702 5698 5694 5690 5688 5686 5683 5680 5677 5675 5671 5669 5668 5667 5664 5663 5661 5659 5659 5659 5658 5656 5656 5654 5653 5653 5651 5649 5647 5645 5643 5642 5641 5640 5640 5638 5636 5635
5701 5700 5699 5697 5695 5693 5690 5687 5682 5678 5676 5673 5670 5667 5665 5663 5662 5660 5658 5656 5654 5653 5651 5651 5650 5649 5647 5646 5645 5644 5643 5642 5641 5639 5636 5634 5633 5631 5630 5628 5627 5626 5625
5693 5692 5690 5688 5686 5685 5682 5679 5676 5673 5669 5666 5663 5659 5657 5655 5654 5653 5651 5648 5648 5646 5644 5643 5641 5640 5638 5636 5635 5633 5632 5631 5629 5627 5625 5624 5622 5620 5619 5618 5616 5615 5614
5685 5684 5682 5680 5678 5676 5674 5671 5669 5665 5662 5659 5657 5653 5650 5648 5645 5643 5641 5640 5639 5638 5636 5633 5632 5630 5628 5626 5623 5622 5620 5618 5617 5614 5612 5611 5610 5609 5607 5607 5606 5605 5603
5676 5673 5671 5671 5670 5668 5665 5662 5659 5656 5653 5651 5648 5646 5644 5641 5639 5637 5634 5632 5630 5628 5626 5624 5622 5619 5617 5615 5612 5610 5608 5606 5603 5600 5599 5598 5597 5596 5595 5594 5595 5594 5593
5667 5666 5663 5662 5660 5658 5655 5652 5649 5647 5645 5642 5640 5637 5633 5633 5631 5629 5627 5624 5621 5619 5616 5614 5612 5609 5606 5603 5601 5598 5596 5592 5589 5587 5585 5585 5584 5583 5583 5584 5584 5584 5584
5658 5657 5655 5653 5651 5648 5646 5643 5641 5638 5636 5634 5632 5630 5625 5624 5623 5620 5617 5615 5612 5609 5606 5603 5601 5598 5595 5592 5589 5587 5584 5581 5578 5576 5575 5574 5573 5573 5573 5573 5573 5573 5573
5650 5649 5648 5646 5644 5640 5638 5636 5633 5631 5629 5627 5624 5621 5617 5615 5613 5611 5607 5605 5602 5599 5596 5593 5590 5588 5585 5582 5578 5575 5571 5568 5566 5564 5564 5564 5563 5562 5562 5562 5562 5562 5562
5642 5641 5640 5638 5635 5633 5631 5628 5626 5623 5621 5618 5615 5612 5608 5605 5603 5600 5598 5595 5592 5589 5585 5582 5579 5577 5574 5571 5568 5564 5560 5557 5555 5555 5554 5554 5553 5553 5553 5553 5553 5552 5551
5634 5633 5631 5629 5627 5624 5622 5619 5617 5615 5612 5609 5606 5602 5599 5596 5593 5590 5588 5584 5581 5578 5575 5572 5569 5566 5563 5560 5557 5553 5550 5548 5546 5545 5544 5544 5543 5543 5544 5543 5543 5543 5542
5626 5623 5622 5621 5618 5616 5613 5610 5608 5606 5603 5600 5597 5594 5590 5587 5584 5580 5577 5574 5572 5568 5566 5563 5560 5556 5554 5551 5547 5544 5541 5539 5538 5537 5535 5534 5534 5534 5534 5534 5535 5534 5534